Date String (YYYY-MM-DD hh:mm:ss) UTC,Instrument flags,Ambient pressure (hPa),Sample flow (lpm),Bypass flow (lpm),Sample temperature (°C),Ambient temperature (°C),ASC tube jacket temperature (°C),LED temperature (°C),Box temperature (°C),Sample RH (%),Span deviation,Mass concentration (μg/m³),Mass concentration (μg/m³),Mass concentration (μg/m³)
DateTimeUTC,F1_M11,P_M11,Q1_M11,Q2_M11,T1_M11,T2_M11,T3_M11,T4_M11,T5_M11,U1_M11,ZSPAN_M11,X0_M11,X2_M11,X1_M11
2023-05-09 04:00:00,,0828.4,5.00,0.00,29.6,27.8,00.0,38.1,31.2,15.0,0000.0,0010.08,0003.05,0001.81
2023-05-09 04:01:00,,0828.4,5.00,0.00,29.6,27.8,00.0,38.1,31.2,15.0,0000.0,0010.13,0003.02,0001.81
2023-05-09 04:02:00,,0828.4,5.00,0.00,29.6,27.8,00.0,38.1,31.2,15.0,0000.0,0009.83,0002.95,0001.80
2023-05-09 04:03:00,,0828.4,5.01,0.00,29.6,27.8,00.0,38.1,31.2,15.0,0000.0,0010.13,0002.93,0001.80
2023-05-09 04:04:00,,0828.4,5.00,0.00,29.6,27.8,00.0,38.1,31.2,15.0,0000.0,0009.58,0002.85,0001.78
2023-05-09 04:05:00,,0828.4,5.01,0.00,29.6,27.8,00.0,38.1,31.2,15.0,0000.0,0009.30,0002.80,0001.78
2023-05-09 04:06:00,,0828.4,5.00,0.00,29.6,27.7,00.0,38.1,31.2,15.0,0000.0,0009.23,0002.81,0001.76
2023-05-09 04:07:00,,0828.4,5.00,0.00,29.6,27.7,00.0,38.1,31.2,15.0,0000.0,0009.02,0002.72,0001.72
2023-05-09 04:08:00,,0828.3,5.00,0.00,29.6,27.7,00.0,38.0,31.1,15.0,0000.0,0008.88,0002.73,0001.72
2023-05-09 04:09:00,,0828.3,5.00,0.00,29.5,27.7,00.0,38.0,31.1,15.0,0000.0,0008.74,0002.72,0001.73
2023-05-09 04:10:00,,0828.3,5.00,0.00,29.5,27.7,00.0,38.0,31.1,15.1,0000.0,0008.62,0002.65,0001.73
2023-05-09 04:11:00,,0828.3,5.00,0.00,29.5,27.7,00.0,38.0,31.1,15.1,0000.0,0008.56,0002.63,0001.73
2023-05-09 04:12:00,,0828.2,5.00,0.00,29.5,27.7,00.0,38.0,31.1,15.2,0000.0,0008.47,0002.65,0001.73
2023-05-09 04:13:00,,0828.3,5.00,0.00,29.5,27.7,00.0,38.0,31.1,15.2,0000.0,0007.79,0002.64,0001.73
2023-05-09 04:14:00,,0828.3,5.00,0.00,29.5,27.7,00.0,38.0,31.1,15.2,0000.0,0007.30,0002.70,0001.74
2023-05-09 04:15:00,,0828.4,5.00,0.00,29.5,27.8,00.0,38.0,31.2,15.3,0000.0,0008.34,0002.74,0001.76
2023-05-09 04:16:00,,0828.3,5.00,0.00,29.5,27.8,00.0,38.0,31.2,15.3,0000.0,0009.05,0002.77,0001.77
2023-05-09 04:17:00,,0828.4,5.01,0.00,29.5,27.9,00.0,38.0,31.2,15.3,0000.0,0008.99,0002.82,0001.80
2023-05-09 04:18:00,,0828.4,5.00,0.00,29.6,27.9,00.0,38.0,31.3,15.3,0000.0,0008.90,0002.87,0001.82
2023-05-09 04:19:00,,0828.4,5.00,0.00,29.6,28.0,00.0,38.0,31.3,15.3,0000.0,0008.65,0002.87,0001.81
2023-05-09 04:20:00,,0828.4,4.99,0.00,29.6,28.1,00.0,38.0,31.3,15.3,0000.0,0009.46,0002.88,0001.81
2023-05-09 04:21:00,,0828.5,4.99,0.00,29.6,28.2,00.0,38.0,31.3,15.3,0000.0,0009.98,0003.06,0001.83
2023-05-09 04:22:00,,0828.5,5.00,0.00,29.6,28.2,00.0,38.0,31.4,15.2,0000.0,0010.30,0003.12,0001.84
2023-05-09 04:23:00,,0828.4,5.01,0.00,29.7,28.2,00.0,38.0,31.4,15.2,0000.0,0010.96,0003.13,0001.83
2023-05-09 04:24:00,,0828.5,5.01,0.00,29.7,28.3,00.0,38.1,31.4,15.1,0000.0,0011.84,0003.17,0001.83
2023-05-09 04:25:00,,0828.4,5.00,0.00,29.7,28.3,00.0,38.1,31.4,15.1,0000.0,0012.76,0003.19,0001.83
2023-05-09 04:26:00,,0828.4,4.99,0.00,29.7,28.4,00.0,38.1,31.4,15.1,0000.0,0013.23,0003.24,0001.83
2023-05-09 04:27:00,,0828.4,4.99,0.00,29.7,28.4,00.0,38.1,31.4,15.1,0000.0,0012.28,0003.25,0001.84
2023-05-09 04:28:00,,0828.4,5.00,0.00,29.8,28.4,00.0,38.1,31.5,15.1,0000.0,0012.19,0003.22,0001.85
2023-05-09 04:29:00,,0828.4,5.01,0.00,29.8,28.4,00.0,38.1,31.5,15.1,0000.0,0012.64,0003.22,0001.84
2023-05-09 04:30:00,,0828.3,5.00,0.00,29.8,28.3,00.0,38.1,31.5,15.0,0000.0,0012.53,0003.22,0001.84
2023-05-09 04:31:00,,0828.3,4.99,0.00,29.8,28.3,00.0,38.1,31.5,15.0,0000.0,0011.88,0003.19,0001.84
2023-05-09 04:32:00,,0828.3,4.99,0.00,29.8,28.3,00.0,38.2,31.5,15.0,0000.0,0011.24,0003.13,0001.84
2023-05-09 04:33:00,,0828.3,5.01,0.00,29.8,28.3,00.0,38.2,31.5,15.0,0000.0,0011.04,0003.07,0001.82
2023-05-09 04:34:00,,0828.3,5.00,0.00,29.8,28.3,00.0,38.2,31.5,15.0,0000.0,0011.07,0003.06,0001.82
2023-05-09 04:35:00,,0828.3,4.98,0.00,29.8,28.3,00.0,38.2,31.5,15.0,0000.0,0010.33,0003.04,0001.83
2023-05-09 04:36:00,,0828.4,5.01,0.00,29.8,28.4,00.0,38.2,31.5,15.0,0000.0,0009.70,0003.01,0001.83
2023-05-09 04:37:00,,0828.3,5.00,0.00,29.8,28.4,00.0,38.2,31.5,15.0,0000.0,0008.48,0002.95,0001.83
2023-05-09 04:38:00,,0828.4,4.98,0.00,29.9,28.4,00.0,38.2,31.6,15.0,0000.0,0008.55,0002.90,0001.81
2023-05-09 04:39:00,,0828.4,5.01,0.00,29.9,28.4,00.0,38.2,31.6,15.0,0000.0,0008.57,0002.89,0001.79
2023-05-09 04:40:00,,0828.4,5.01,0.00,29.9,28.4,00.0,38.2,31.6,15.1,0000.0,0008.16,0002.84,0001.79
2023-05-09 04:41:00,,0828.4,4.98,0.00,29.9,28.4,00.0,38.2,31.5,15.2,0000.0,0008.25,0002.80,0001.79
2023-05-09 04:42:00,,0828.4,5.02,0.00,29.9,28.3,00.0,38.2,31.5,15.3,0000.0,0008.48,0002.92,0001.80
2023-05-09 04:43:00,,0828.4,5.01,0.00,29.9,28.3,00.0,38.3,31.5,15.3,0000.0,0008.79,0003.05,0001.80
2023-05-09 04:44:00,,0828.4,5.00,0.00,29.9,28.3,00.0,38.3,31.5,15.4,0000.0,0009.22,0003.11,0001.83
2023-05-09 04:45:00,,0828.4,5.00,0.00,29.9,28.2,00.0,38.3,31.5,15.5,0000.0,0009.60,0003.09,0001.84
2023-05-09 04:46:00,,0828.4,4.98,0.00,29.9,28.2,00.0,38.3,31.5,15.5,0000.0,0009.69,0003.08,0001.83
2023-05-09 04:47:00,,0828.4,5.00,0.00,29.9,28.2,00.0,38.3,31.5,15.5,0000.0,0009.60,0003.14,0001.86
2023-05-09 04:48:00,,0828.4,5.00,0.00,29.9,28.2,00.0,38.3,31.5,15.5,0000.0,0009.61,0003.15,0001.88
2023-05-09 04:49:00,,0828.3,5.00,0.00,29.9,28.1,00.0,38.3,31.5,15.6,0000.0,0009.61,0003.17,0001.89
2023-05-09 04:50:00,,0828.3,5.00,0.00,29.8,28.1,00.0,38.3,31.5,15.7,0000.0,0010.06,0003.22,0001.92
2023-05-09 04:51:00,,0828.3,5.00,0.00,29.8,28.0,00.0,38.3,31.4,15.5,0000.0,0010.68,0003.26,0001.93
2023-05-09 04:52:00,,0828.4,5.00,0.00,29.8,27.9,00.0,38.3,31.4,15.3,0000.0,0010.53,0003.29,0001.94
2023-05-09 04:53:00,,0828.3,5.00,0.00,29.8,27.9,00.0,38.3,31.3,15.3,0000.0,0010.29,0003.25,0001.96
2023-05-09 04:54:00,,0828.3,5.01,0.00,29.7,27.8,00.0,38.2,31.3,15.3,0000.0,0010.26,0003.23,0001.97
2023-05-09 04:55:00,,0828.3,5.00,0.00,29.7,27.8,00.0,38.2,31.3,15.2,0000.0,0009.93,0003.23,0001.96
2023-05-09 04:56:00,,0828.3,5.00,0.00,29.7,27.8,00.0,38.2,31.3,15.1,0000.0,0008.88,0003.24,0001.96
2023-05-09 04:57:00,,0828.3,4.99,0.00,29.7,27.7,00.0,38.2,31.3,15.1,0000.0,0008.94,0003.23,0001.95
2023-05-09 04:58:00,,0828.3,5.00,0.00,29.7,27.7,00.0,38.2,31.2,15.1,0000.0,0009.22,0003.17,0001.92
2023-05-09 04:59:00,,0828.3,5.00,0.00,29.7,27.7,00.0,38.2,31.2,15.1,0000.0,0009.27,0003.15,0001.90
